Regional Weather Roundup
Issued by NWS Grand Forks, ND

Home | Current Version | Previous Version | Graphics & Text | Print | Product List | Glossary On
Versions: 1 2 3 4 5 6 7 8 9 10 11 12 13 14 15 16 17 18 19 20 21 22 23 24 25 26 27 28 29 30 31 32 33 34 35 36 37 38 39 40 41 42 43 44 45 46 47 48 49 50
000
ASUS43 KFGF 021210
RWRFGF
PRAIRIE TO PINES  WEATHER ROUNDUP
NATIONAL WEATHER SERVICE EASTERN NORTH DAKOTA/GRAND FORKS ND
700 AM CDT TUE JUN 02 2015

 **SATELLITE DATA USED TO AUGMENT SKY COVER AT AUTOMATED STATIONS**
 *****  WEATHER ACROSS EASTERN NORTH DAKOTA  *****

CITY           SKY/WX    TMP DP  RH WIND       PRES   REMARKS
GRAND FORKS    LGT RAIN  57  53  86 S13       29.83F
6HR MIN TEMP:  56; 6HR MAX TEMP:  64; 6HR PCP:  0.70;

GRAND FRKS AFB CLOUDY    58  53  85 S8        29.82F
GRAND FRKS NWS   N/A     55 N/A N/A S16         N/A
DEVILS LAKE    CLOUDY    61  54  77 S10       29.83R
6HR MIN TEMP:  61; 6HR MAX TEMP:  63;

FARGO          CLOUDY    62  49  62 S16G29    29.88R
WAHPETON ARPT  CLOUDY    59  46  63 S17       29.88S
$$

 ***** WEATHER ACROSS CENTRAL AND WESTERN NORTH DAKOTA  *****

CITY           SKY/WX    TMP DP  RH WIND       PRES   REMARKS
BISMARCK       CLOUDY    62  57  83 E6        29.79F
6HR MIN TEMP:  60; 6HR MAX TEMP:  72; 6HR PCP:  0.56;

MINOT          CLOUDY    58  57  97 N6        29.78F FOG
6HR MIN TEMP:  58; 6HR MAX TEMP:  61;

JAMESTOWN      LGT RAIN  61  58  90 S10       29.82F
6HR MIN TEMP:  61; 6HR MAX TEMP:  65; 6HR PCP:  0.04;

MINOT AFB      CLOUDY    59  59 100 N6        29.79F
GARRISON         N/A     59  57  93 NE7       29.73F
WILLISTON      CLOUDY    62  56  80 NE15      29.77F
6HR MIN TEMP:  62; 6HR MAX TEMP:  66; 6HR PCP: TRACE;

DICKINSON      PTCLDY    57  55  93 E9        29.77R
6HR MIN TEMP:  57; 6HR MAX TEMP:  64; 6HR PCP:  0.15;

HETTINGER      PTCLDY    58  53  84 E9        29.80S
6HR MIN TEMP:  58; 6HR MAX TEMP:  67; 6HR PCP: TRACE;

$$

 *****  OTHER AIRPORT OBSERVATIONS IN OUR AREA  *****

CITY           SKY/WX    TMP DP  RH WIND       PRES   REMARKS
WALHALLA       FAIR      55  55 100 MISG      29.83R
GRAFTON AIRPOR FAIR      57  57 100 S7        29.84R
VALLEY CITY AR LGT RAIN  63  57  82 S7        29.87R
CANDO          CLOUDY    59  59 100 SE5       29.82F
CAVALIER APRT  CLOUDY    57  55  94 E3        29.84R
GWINNER        NOT AVBL
SHEYENNE NWR     N/A     60  52  75 SE3       29.95S
ROLLA          CLOUDY    55  55 100 N3        29.85R
 ***** THE ABOVE OBSERVATIONS ARE NON NWS ARE NOT QUALITY
       CONTROLLED AND MAY MIS-REPORT RAIN FOR SNOW...
$$

  *****  WEATHER ACROSS NORTHERN MINNESOTA  *****

CITY           SKY/WX    TMP DP  RH WIND       PRES   REMARKS
FLAG ISLAND    NOT AVBL
WARROAD        CLOUDY    59  52  77 S6        29.88R
ROSEAU         CLOUDY    59  54  82 S10       29.86F
HALLOCK        CLOUDY    57  54  88 S15       29.83R
THF RVR FALLS  CLOUDY    59  52  77 S12       29.90R
6HR MIN TEMP:  55; 6HR MAX TEMP:  63; 6HR PCP:  0.46;

BAUDETTE       CLOUDY    57  44  62 SE9       29.90F
6HR MIN TEMP:  55; 6HR MAX TEMP:  58; 6HR PCP: TRACE;

WASKISH        RAIN      55  48  76 SE8       29.91F
CROOKSTON      RAIN      55  54  94 S12       29.89S
STEPHEN NDAWN    N/A     57  54  88 S16         N/A
GREENBUSH NDAW   N/A     59  54  82 S8          N/A
$$
  *****  WEATHER ACROSS CENTRAL AND WEST MINNESOTA  *****

CITY           SKY/WX    TMP DP  RH WIND       PRES   REMARKS
FOSSTON        RAIN      55  52  88 SE6       29.91R
BEMIDJI        CLOUDY    59  42  54 S7        29.94R
PARK RAPIDS    CLOUDY    58  43  57 S9        29.96R
6HR MIN TEMP:  57; 6HR MAX TEMP:  59;

ELBOW LAKE     FAIR      60  49  67 S20G29    29.93R
6HR MIN TEMP:  58; 6HR MAX TEMP:  62;

WADENA         CLOUDY    57  45  62 S12       29.96S
DETROIT LAKES  CLOUDY    59  46  63 SE8       29.94R
MOORHEAD       CLOUDY    63  48  59 S16       29.89R
FERGUS FALLS   CLOUDY    61  48  63 S18       29.93R
MORRIS MN      CLOUDY    59  50  72 SE16      29.93S
STAPLES        PTSUNNY   55  43  62 SE8       29.98S
$$
  *****  WEATHER ELSEWHERE ACROSS MINNESOTA  *****

CITY           SKY/WX    TMP DP  RH WIND       PRES   REMARKS
DULUTH         MOSUNNY   50  38  63 SE8       30.08S
6HR MIN TEMP:  43; 6HR MAX TEMP:  50;

INTRNTL FALLS  CLOUDY    55  41  59 VRB5      29.96F
6HR MIN TEMP:  55; 6HR MAX TEMP:  59;

ELY            CLOUDY    55  36  47 S9G16     30.05S
CLOQUET        MOSUNNY   45  37  76 E5        30.07F
WHEATON        CLOUDY    57  48  72 SE17      29.91S
BRAINERD       PTSUNNY   58  43  57 S12       30.01R
6HR MIN TEMP:  55; 6HR MAX TEMP:  59;

HIBBING        PTSUNNY   47  39  74 SE5       30.04F
6HR MIN TEMP:  41; 6HR MAX TEMP:  47;

ALEXANDRIA     CLOUDY    60  47  61 S14       29.98R
6HR MIN TEMP:  58; 6HR MAX TEMP:  60;

SAINT CLOUD    PTSUNNY   57  46  66 S12       30.02F
6HR MIN TEMP:  51; 6HR MAX TEMP:  58;

MINNEAPOLIS    PTSUNNY   56  42  59 S13       30.09R
6HR MIN TEMP:  54; 6HR MAX TEMP:  58;

$$

  *****  WEATHER ACROSS SOUTH DAKOTA  *****

CITY           SKY/WX    TMP DP  RH WIND       PRES   REMARKS
SIOUX FALLS    PTSUNNY   59  53  80 S18G25    29.95F
6HR MIN TEMP:  59; 6HR MAX TEMP:  64;

BROOKINGS      PTSUNNY   59  52  77 SE17G24   29.95S
WATERTOWN      CLOUDY    59  52  77 S14       29.88F
6HR MIN TEMP:  58; 6HR MAX TEMP:  64;

HURON          PTSUNNY   62  54  74 S17G26    29.85R
6HR MIN TEMP:  61; 6HR MAX TEMP:  66;

SISSETON         N/A     61  54  77 SE12      29.86R
ABERDEEN       CLOUDY    63  54  72 S16G28    29.82R
6HR MIN TEMP:  62; 6HR MAX TEMP:  66;

MITCHELL       PTCLDY    62  55  77 SE20      29.88S
PIERRE         LGT RAIN  64  61  90 S12       29.80R
6HR MIN TEMP:  64; 6HR MAX TEMP:  67; 6HR PCP: TRACE;

MOBRIDGE       MOCLDY    64  62  93 MISG      29.78R
RAPID CITY     MOCLDY    59  52  77 N8        29.82R
6HR MIN TEMP:  56; 6HR MAX TEMP:  66;

$$

  *****  SOME WEATHER IN NEARBY STATES *****

CITY           SKY/WX    TMP DP  RH WIND       PRES   REMARKS
GLASGOW MT     LGT RAIN  55  50  83 N13       29.86F
6HR MIN TEMP:  55; 6HR MAX TEMP:  67; 6HR PCP:  0.70;

GREAT FALLS MT MOCLDY    51  50  96 CALM      29.86F
6HR MIN TEMP:  49; 6HR MAX TEMP:  54;

CHEYENNE WY    PTCLDY    49  45  86 W5        30.02F
6HR MIN TEMP:  47; 6HR MAX TEMP:  58; 6HR PCP:  0.01;

SCOTTSBLUFF NE MOCLDY    63  54  72 N7        29.95R
6HR MIN TEMP:  57; 6HR MAX TEMP:  65; 6HR PCP: TRACE;

OMAHA NE       CLOUDY    58  54  86 S13       30.05F
6HR MIN TEMP:  57; 6HR MAX TEMP:  62;

DES MOINES IA  PTSUNNY   56  52  86 S7        30.13R
6HR MIN TEMP:  54; 6HR MAX TEMP:  58;

DAVENPORT IA   MOSUNNY   52  45  77 SE7       30.19R
6HR MIN TEMP:  50; 6HR MAX TEMP:  56;

CHICAGO IL     MOSUNNY   48  42  80 CALM      30.20R
6HR MIN TEMP:  42; 6HR MAX TEMP:  48;

EAU CLAIRE WI  SUNNY     51  37  58 S9        30.14F
6HR MIN TEMP:  47; 6HR MAX TEMP:  51;

LA CROSSE WI   MOSUNNY   53  40  61 SE8       30.17S
6HR MIN TEMP:  50; 6HR MAX TEMP:  56;

$$

  *****  SOME NATIONAL WEATHER *****

CITY           SKY/WX    TMP DP  RH WIND       PRES   REMARKS
LA GUARDIA NY  LGT RAIN  50  47  89 N12       30.13R VSB 1
6HR MIN TEMP:  50; 6HR MAX TEMP:  51; 6HR PCP:  0.11;

RALEIGH NC     CLOUDY    69  67  93 SW5       30.02R
6HR MIN TEMP:  68; 6HR MAX TEMP:  70;

ATLANTA GA     MOSUNNY   68  64  87 CALM      30.04R
6HR MIN TEMP:  65; 6HR MAX TEMP:  70; 6HR PCP:  0.12;

NEW ORLEANS LA MOSUNNY   73  69  87 CALM      29.99R FOG
6HR MIN TEMP:  72; 6HR MAX TEMP:  75;

OKLAHOMA CITY  MOCLDY    66  61  84 S9        30.02R
6HR MIN TEMP:  64; 6HR MAX TEMP:  67;

ALBUQUERQUE NM PTCLDY    59  40  49 SE7       30.15R
6HR MIN TEMP:  59; 6HR MAX TEMP:  72;

SALT LAKE CITY MOCLDY    60  46  59 SE5       29.91R
6HR MIN TEMP:  58; 6HR MAX TEMP:  67;




USA.gov is the U.S. government's official web portal to all federal, state and local government web resources and services.